Elmira, NY

8:01 PM EDT on August 26, 2016 (GMT -0400)
Elmira-Corning Regional

Weather History for KELM - January, 2014

Change the Weather History Date:

Sunday, January 19, 2014

  Actual Average Record
Temperature  
Mean Temperature 24 °F -  
Max Temperature 33 °F 29 °F 62 °F (1933)
Min Temperature 15 °F 12 °F -13 °F (1948)
Degree Days  
Heating Degree Days 41    
Moisture  
Dew Point 13 °F    
Average Humidity 66    
Maximum Humidity 79    
Minimum Humidity 52    
Precipitation  
Precipitation 0.00 in - - ()
Sea Level Pressure  
Sea Level Pressure 29.69 in    
Wind  
Wind Speed 7 mph (WSW)    
Max Wind Speed 22 mph    
Max Gust Speed 30 mph    
Visibility 8 miles    
Events Snow    
Averages and records for this station are not official NWS values.
T = Trace of Precipitation, MM = Missing Value Source: NWS Daily Summary

Daily Weather History Graph

Daily Weather History Graph

Search for Another Location

Airport or City:

Trip Planner

Search our weather history database for the weather conditions in past years. The results will help you decide how hot, cold, wet, or windy it might be!

Date:

Astronomy

Jan. 19, 2014 Rise Set
Actual Time 7:31 AM EST 5:05 PM EST
Civil Twilight 7:00 AM EST 5:36 PM EST
Nautical Twilight 6:26 AM EST 6:10 PM EST
Astronomical Twilight 5:53 AM EST 6:43 PM EST
Moon 8:46 PM EST (1/19) 8:56 AM EST (1/19)
Length of Visible Light 10h 35m
Length of Day
9h 34m
Waning Gibbous, 89% of the Moon is Illuminated
Jan 19
Waning Gibbous
Jan 24
Last Quarter
Jan 30
New
Feb 6
First Quarter
Feb 14
Full

Hourly Weather History & Observations

Time (EST) Temp. Windchill Dew Point Humidity Pressure Visibility Wind Dir Wind Speed Gust Speed Precip Events Conditions
12:05 AM 15.8 °F 5.1 °F 8.6 °F 73% 29.84 in 10.0 mi WSW 8.1 mph - N/A   Overcast
12:53 AM 15.1 °F 6.4 °F 7.0 °F 70% 29.87 in 10.0 mi WSW 5.8 mph - N/A   Overcast
1:53 AM 16.0 °F 7.4 °F 8.1 °F 71% 29.84 in 10.0 mi WSW 5.8 mph - N/A   Overcast
2:46 AM 15.8 °F 7.2 °F 8.6 °F 73% 29.80 in 10.0 mi West 5.8 mph - N/A   Overcast
2:53 AM 16.0 °F 6.3 °F 8.1 °F 71% 29.85 in 10.0 mi West 6.9 mph - N/A   Overcast
3:53 AM 16.0 °F 10.4 °F 9.0 °F 74% 29.83 in 2.5 mi West 3.5 mph - 0.00 in Snow Light Snow
4:07 AM 15.8 °F 10.2 °F 10.4 °F 79% 29.78 in 2.5 mi WSW 3.5 mph - 0.00 in Snow Light Snow
4:14 AM 15.8 °F - 10.4 °F 79% 29.77 in 3.0 mi Calm Calm - 0.00 in Snow Light Snow
4:53 AM 16.0 °F - 10.0 °F 77% 29.79 in 3.0 mi Calm Calm - 0.00 in Snow Light Snow
5:14 AM 15.8 °F - 10.4 °F 79% 29.74 in 2.5 mi Calm Calm - 0.00 in Snow Light Snow
5:24 AM 15.8 °F 10.2 °F 10.4 °F 79% 29.73 in 3.0 mi SW 3.5 mph - 0.00 in Snow Light Snow
5:53 AM 16.0 °F - 9.0 °F 74% 29.75 in 9.0 mi Calm Calm - 0.00 in   Overcast
6:53 AM 16.0 °F 10.4 °F 9.0 °F 74% 29.76 in 10.0 mi SW 3.5 mph - N/A   Mostly Cloudy
7:53 AM 15.1 °F 9.4 °F 9.0 °F 77% 29.75 in 9.0 mi West 3.5 mph - 0.00 in   Overcast
8:53 AM 15.1 °F - 9.0 °F 77% 29.74 in 9.0 mi Calm Calm - N/A   Partly Cloudy
9:53 AM 19.9 °F 10.1 °F 10.9 °F 68% 29.70 in 10.0 mi WSW 8.1 mph - N/A   Partly Cloudy
10:53 AM 24.1 °F 12.0 °F 12.9 °F 62% 29.67 in 10.0 mi SW 13.8 mph - N/A   Clear
11:53 AM 26.1 °F 14.0 °F 14.0 °F 60% 29.63 in 10.0 mi WSW 15.0 mph - N/A   Scattered Clouds
12:53 PM 28.0 °F 16.1 °F 14.0 °F 56% 29.58 in 10.0 mi WSW 16.1 mph 24.2 mph N/A   Partly Cloudy
1:53 PM 28.9 °F 15.4 °F 14.0 °F 54% 29.56 in 10.0 mi WSW 21.9 mph 27.6 mph N/A   Partly Cloudy
2:53 PM 30.0 °F 19.1 °F 15.1 °F 54% 29.57 in 10.0 mi WSW 15.0 mph 29.9 mph N/A   Overcast
3:53 PM 30.0 °F 18.3 °F 15.1 °F 54% 29.56 in 10.0 mi SW 17.3 mph - N/A   Overcast
4:53 PM 30.9 °F 20.7 °F 15.1 °F 52% 29.57 in 10.0 mi SW 13.8 mph 20.7 mph N/A   Overcast
5:53 PM 30.9 °F 20.7 °F 17.1 °F 57% 29.57 in 10.0 mi SW 13.8 mph - N/A   Overcast
6:53 PM 33.1 °F 23.0 °F 17.1 °F 52% 29.59 in 10.0 mi WSW 15.0 mph 19.6 mph N/A   Overcast
7:53 PM 33.1 °F 23.9 °F 18.0 °F 54% 29.61 in 10.0 mi West 12.7 mph 20.7 mph N/A   Overcast
8:53 PM 33.1 °F 24.9 °F 19.0 °F 56% 29.60 in 10.0 mi WSW 10.4 mph 20.7 mph N/A   Overcast
9:53 PM 33.1 °F 25.5 °F 19.0 °F 56% 29.59 in 10.0 mi WSW 9.2 mph - N/A   Overcast
10:53 PM 33.1 °F 25.5 °F 19.9 °F 59% 29.59 in 10.0 mi WSW 9.2 mph - N/A   Overcast
11:53 PM 33.1 °F 25.5 °F 19.9 °F 59% 29.57 in 10.0 mi WSW 9.2 mph - N/A   Overcast